Timeline UpdatesTrip UpdatesNews PostsPvt Posts♥♥Travel TipsAdmin PostsConv PostsFollowed PostsChat RequestsBlog PostsPNR Posts

Disclaimer
Search
 
 
Mon Nov 24, 2014 09:31:53 ISTHomeTrainsΣChainsAtlasPNRForumGalleryNewsFAQTripsMembersLoginFeedback
PNR Super Search

Ticket PNR Status Inquiry - PNR: 213-xxxxxxx (E-Ticket)

OLD STATUS

Status Last Updated on: Apr 19 2012 (6:17PM) IST

Date of Journey: Thu Apr 19, 2012   Class: Sleeper - SL
Passenger 1: Waitlist# 14 (Booking Status: W/L 52,RLGN)
Chart PREPARED

Sadbhavana Express/14008

Travel Time: 6h 37m    4 halts    Distance: 304 km    Avg Speed: 45 km/hr
Type: Mail/Express
Zone: NR/Northern
Departs @ 20:48 (Avg 1h 52m late)
Platform# 1
  T T  
Chandausi Junction/CH 
Arrives @ 03:25 +1 night (Avg 1h 17m late)
Platform# 3
   W F 
Lucknow Charbagh NR/LKO 

4 halts. 48 intermediate Stations between Chandausi Junction and Lucknow Charbagh NR

Show ALL intermediate Stations  Show Old Time-Table

#TrkCodeStation NameX/OArrivesAvgDepartsAvgHaltPFDay#KmSpeedElevZoneAddress
1/==/DLIOld Delhi Junction (16)  -16:15+1:0391-204.526219mNRNear Chandni Chowk Metro Station, Delhi NCT
2/==/GZBGhaziabad Junction (6)  17:03 17:01+1:0317:05 17:03+1:032m51-184.559217mNRGhaziabad, Uttar Pradesh
3%==%PKWPilkhua (3)  17:29+1:3217:31+1:352m--1-158.951218mNRPilkhuwa, Uttar Pradesh
4%==%HPUHapur Junction (4)  17:46 17:44+1:3617:48 17:46+1:372m31-147.773214mNRHapur Jn., Uttar Pradesh
5%==%AMROAmroha (3)  18:46+1:5718:48+1:592m11-74.339217mNRAmroha, Uttar Pradesh
6%==%MBMoradabad Junction (7)  19:35+1:5519:45+1:5710m31-43.748201mNRMoradabad, Uttar Pradesh
7|--|CHChandausi Junction (3)»X  20:40+1:5620:48+1:528m110.053193mNRChandausi, Uttar Pradesh
8|--|AOAonla (2)  21:36+1:5221:38+1:522m--142.252176mNRDist. Bareilly, Uttar Pradesh
9/==/SPNShahjahanpur Junction (5)X  23:30+1:5623:35+1:565m--1139.638156mNRShahjahanpur, Uttar Pradesh
10/==/HRIHardoi (5)X  01:13 01:15+1:1901:15 01:20+1:202 5m32202.658146mNRHardoi, Uttar Pradesh
11/==/AMGAlamnagar (3)X  02:58+1:1903:00+1:272m32297.417126mNRLucknow, Uttar Pradesh
12/==/LKOLucknow Charbagh NR (9)•XO  03:25+1:1703:35+1:2410m32304.557 NR226004, Uttar Pradesh
13%==%NHHNihalgarh (3)  05:08+1:3405:10+1:382m12393.476108mNRJagdishpur, Uttar Pradesh
14%==%MFKAMusafir Khana (3)  05:25+1:4605:27+1:462m12412.344105mNRMusfirKhana, Uttar Pradesh
15/==%SLNSultanpur Junction (3)  06:10+1:3906:15+1:415m32443.96999mNRSultanpur., Uttar Pradesh
16%==%LBALambhua (1)X  06:33 06:34+1:5706:35+1:592 1m12465.87097mNRLambhua, Uttar Pradesh
17/==/JOPJaunpur City (3)  07:29 07:30+2:0507:31+2:062 1m12529.63587mNRJaunpur, Uttar Pradesh
18/==/BSBVaranasi Junction (9)X  09:10+1:2909:25+1:3115m--2587.11882mNRVaranasi 221002, Uttar Pradesh
19|--|BCYVaranasi City (3)  09:34 09:36+1409:36 09:40+172 4m12590.45577mNERVaranasi, Uttar Pradesh
20|--|ARJAunrihar Junction (4)  10:15+1:1610:17+1:202m22622.35580mNERGhazipur, Uttar Pradesh
21|--|GCTGhazipur City (3)  11:00+1:5311:05+1:565m12661.86374mNERGhazipur, Uttar Pradesh
22|--|YFPYusufpur  11:24+1:4011:26+1:402m--2681.84477mNERMDR 94E, Uttar Pradesh
23|--|BUIBallia (3)  12:28+1:2512:33+1:255m--2726.86462mNERBallia, Uttar Pradesh
24|--|SIPSuraimanpur  13:05 13:07+1:3213:07 13:09+1:342m--2763.32960mNERBallia, Uttar Pradesh
25|--|CPRChhapra Junction (6)X  14:10+1:0714:30+1:0920m--2792.45858mNERDistt: Saran, Bihar
26/==/DGADighwara (2)X  15:00 15:02+1:5115:02 15:04+1:512m--2823.33860mECR06158-281240, Bihar
27/==/SEESonpur Junction (4)  15:41+1:4215:46+1:425m--2846.53356mECRSaran, Bihar
28/=-/HJPHajipur Junction (3)  15:59 15:56+1:5016:01+1:532 5m32852.03155mECR06224-272230, Bihar
29%==%MFPMuzaffarpur Junction (6)17:45+1:3318:15+1:3130m12905.85357mECRMuzaffarpur, Bihar
30|--|RUSDRunnisaidpur (3) new halt!!  19:02+2:3019:04+2:302m--2947.44459mECRNear Saidpur, Bihar
31|==|SMISitamarhi Junction (5)  19:35+2:2919:40+2:295m--2970.24366mECRSitamarhi, Bihar
32|--|BGUBairgania  20:21+2:5220:23+2:522m--2999.62977mECRSitamarhi, Bihar
33|--|RXLRaxaul Junction (5)  22:15+2:26---21053.0-88mECREast Champaran, Bihar
Scroll to Top
Scroll to Bottom